{"data":{"norad_id":56825,"intl_designator":"2023-079C","name":"STARLINK-30084","alt_names":[],"object_type":"PAYLOAD","status":"ACTIVE","operator":null,"country":"US","launch_date":"2023-06-04","launch_site_code":"AFETR","launch_vehicle":null,"mission":null,"orbit_class":"UNKNOWN","rcs_meters":null,"size_class":null,"mass_kg":null,"dimensions":null,"purposes":["comms"],"wikipedia_slug":null,"has_3d_model":false,"image_url":null,"decayed_at":null,"tle_current":{"epoch":"2026-09-18T21:54:52.949376Z","epoch_age_seconds":254755,"freshness":"STALE","line1":"1 56825U 23079C   26261.91311284  .00000649  00000+0  33117-4 0  9990","line2":"2 56825  43.0030  95.4627 0001358 281.0436  79.0263 15.27580101182448","mean_motion":15.27580101,"eccentricity":0.0001358,"inclination_deg":43.003,"raan_deg":95.4627,"arg_perigee_deg":281.0436,"mean_anomaly_deg":79.0263,"bstar":3.3117e-5,"rev_number":18244,"period_min":94.266742480956,"perigee_km":482.11704457856,"apogee_km":483.98054264011,"semimajor_km":6861.1857936093,"source":"CELESTRAK","updated_at":"2026-09-21T09:00:33.515035Z"}}}